Regional Weather Roundup
Issued by NWS

Home | Current Version | Previous Version | Graphics & Text | Print | Product List | Glossary On
Versions: 1 2 3 4 5 6 7 8 9 10 11 12 13 14 15 16 17 18 19 20 21 22 23 24 25 26 27 28 29 30 31 32 33 34 35 36 37 38 39 40 41 42 43 44 45 46 47 48 49 50
000
ASUS44 KMEG 262210
RWRTN
TENNESSEE HOURLY STATE WEATHER ROUNDUP
NATIONAL WEATHER SERVICE MEMPHIS TN
500 PM CDT WED JUL 26 2017

TNZ002-004-019-021-049-052-054-088>092-262300-
WEST TENNESSEE

CITY           SKY/WX    TMP DP  RH WIND       PRES   REMARKS
MEMPHIS INTL   FAIR      94  72  48 W12       30.03F HX 102
NWS MEMPHIS      N/A     94 N/A N/A MISG        N/A
JACKSON        FAIR      94  74  52 SW7       30.02F HX 104
SOMERVILLE       N/A     95  73  49 SW9       30.01F HX 105
COVINGTON      MOSUNNY   93  73  52 W9        30.01F HX 102
UNION CITY     SUNNY     91  77  62 SW5       30.00S HX 105
BOLIVAR        SUNNY     95  70  43 SW9G16    30.01F HX 101
PARIS          SUNNY     91  77  62 SW7       30.01F HX 105
HUNTINGDON     SUNNY     93  75  55 SW6       30.00F HX 104
LEXINGTON      MOSUNNY   93  72  49 NW5       30.01F HX 100
SAVANNAH       SUNNY     95  73  49 CALM      30.01F HX 105
$$

TNZ008-025-027-028-033-062-065-066-262300-
NORTH MIDDLE TENNESSEE

CITY           SKY/WX    TMP DP  RH WIND       PRES   REMARKS
NASHVILLE      PTSUNNY   96  70  42 W6        30.02F HX 102
PORTLAND       SUNNY     91  73  55 CALM      30.03F HX 100
CLARKSVILLE    FAIR      92  72  51 SW7       30.01F HX  99
SMYRNA         FAIR      92  74  55 CALM      30.03F HX 101
COOKEVILLE     SUNNY     91  70  49 NW5       30.05S HX  97
GALLATIN       CLOUDY    91  75  59 VRB6      30.05S HX 102
CROSSVILLE     PTSUNNY   89  67  47 CALM      30.12F HX  92
$$

TNZ061-075-076-078-094-096-097-262300-
SOUTH MIDDLE TENNESSEE

CITY           SKY/WX    TMP DP  RH WIND       PRES   REMARKS
FAYETTEVILLE   SUNNY     90  75  62 E3        30.05F HX 100
TULLAHOMA      SUNNY     90  72  55 SW7       30.07F HX  96
WINCHESTER     SUNNY     91  72  52 VRB5      30.05F HX  98
MCMINNVILLE    SUNNY     91  75  59 W5        30.06F HX 102
COLUMBIA       MOSUNNY   93  72  49 CALM      30.01F HX 100
SHELBYVILLE    MOSUNNY   88  75  66 CALM      30.05S HX  97
$$

TNZ017-018-042-046-047-262300-
NORTHEAST TENNESSEE

CITY           SKY/WX    TMP DP  RH WIND       PRES   REMARKS
TRI CITIES     FAIR      91  62  37 W10       30.09F HX  91
ELIZABETHTON   FAIR      88  64  45 NE5       30.10F
$$

TNZ012-013-036-069-073-074-262300-
CENTRAL EAST TENNESSEE

CITY           SKY/WX    TMP DP  RH WIND       PRES   REMARKS
KNOXVILLE      FAIR      92  67  43 NW6       30.05F HX  95
OAK RIDGE      FAIR      93  67  42 W3        30.06F HX  96
GATLINBURG     MOSUNNY   93  63  36 CALM      30.05F HX  94
MORRISTOWN     SUNNY     90  68  48 NW8       30.07F HX  93
JACKSBORO      MOSUNNY   88  70  55 E5        30.10F HX  92
$$

TNZ083-085-099-262300-
SOUTHEAST TENNESSEE

CITY           SKY/WX    TMP DP  RH WIND       PRES   REMARKS
CHATTANOOGA    FAIR      94  69  44 N6        30.04F HX  99
DAYTON         CLEAR     91  73  55 SW3       30.03F HX 100
$$

SKY/WX REPORTED AS FAIR MEANS FEW OR NO CLOUDS BELOW
12 THOUSAND FEET.





USA.gov is the U.S. government's official web portal to all federal, state and local government web resources and services.